Weather History for Port Isabel, TX

Change the Weather History Date:

Thursday, December 5, 2013

  Actual Average Record
Temperature  
Mean Temperature 72 °F -  
Max Temperature 82 °F - - ()
Min Temperature 61 °F - - ()
Cooling Degree Days 8    
Growing Degree Days 22 (Base 50)    
Moisture  
Dew Point 70 °F    
Average Humidity 85    
Maximum Humidity 94    
Minimum Humidity 65    
Precipitation  
Precipitation 0.00 in - - ()
Sea Level Pressure  
Sea Level Pressure 29.82 in    
Wind  
Wind Speed 10 mph (SSE)    
Max Wind Speed 22 mph    
Max Gust Speed 29 mph    
Visibility 5 miles    
Events Fog , Rain    
T = Trace of Precipitation, MM = Missing Value Source: NWS Daily Summary

Daily Weather History Graph

Daily Weather History Graph

Search for Another Location

Airport:

Trip Planner

Search our weather history database for the weather conditions in past years. The results will help you decide how hot, cold, wet, or windy it might be!

Date:

Astronomy

Dec. 05, 2013 Rise Set
Actual Time 7:02 AM CST 5:37 PM CST
Civil Twilight 6:37 AM CST 6:02 PM CST
Nautical Twilight 6:09 AM CST 6:31 PM CST
Astronomical Twilight 5:40 AM CST 6:59 PM CST
Moon 9:31 AM CST (12/5) 8:50 PM CST (12/5)
Length of Visible Light 11h 24m
Length of Day
10h 34m
Waxing Crescent, 11% of the Moon is Illuminated
Dec 5
Waxing Crescent
Dec 9
First Quarter
Dec 17
Full
Dec 25
Last Quarter
Jan 1
New

Hourly Weather History & Observations

Time (CST) Temp. Heat Index Dew Point Humidity Pressure Visibility Wind Dir Wind Speed Gust Speed Precip Events Conditions
12:00 AM 73.4 °F - 71.6 °F 94% 29.81 in 0.5 mi SSE 6.9 mph - N/A Fog Fog
12:53 AM 73.0 °F - 71.1 °F 93% 29.80 in 0.8 mi SSE 10.4 mph - N/A   Mist
1:10 AM 73.4 °F - 71.6 °F 94% 29.80 in 1.0 mi SSE 11.5 mph - N/A   Mist
1:24 AM 73.4 °F - 71.6 °F 94% 29.80 in 0.8 mi SSE 10.4 mph - N/A   Mist
1:53 AM 73.0 °F - 71.1 °F 93% 29.80 in 0.5 mi South 5.8 mph - N/A Fog Fog
2:14 AM 73.4 °F - 71.6 °F 94% 29.80 in 1.2 mi South 5.8 mph - N/A   Overcast
2:26 AM 73.4 °F - 71.6 °F 94% 29.79 in 2.5 mi South 5.8 mph - N/A   Overcast
2:33 AM 73.4 °F - 71.6 °F 94% 29.79 in 3.0 mi South 6.9 mph - N/A   Overcast
2:53 AM 73.0 °F - 71.1 °F 93% 29.79 in 3.0 mi South 5.8 mph - N/A   Overcast
3:20 AM 73.4 °F - 71.6 °F 94% 29.78 in 2.5 mi South 10.4 mph - N/A   Overcast
3:31 AM 73.4 °F - 71.6 °F 94% 29.78 in 3.0 mi South 12.7 mph - N/A   Overcast
3:45 AM 73.4 °F - 71.6 °F 94% 29.79 in 2.5 mi South 6.9 mph - N/A   Overcast
3:53 AM 73.0 °F - 71.1 °F 93% 29.79 in 3.0 mi South 6.9 mph - N/A   Overcast
4:53 AM 73.0 °F - 70.0 °F 90% 29.80 in 4.0 mi South 9.2 mph - N/A   Overcast
5:53 AM 72.0 °F - 69.1 °F 91% 29.80 in 4.0 mi South 5.8 mph - N/A   Overcast
6:53 AM 72.0 °F - 68.0 °F 87% 29.81 in 4.0 mi South 5.8 mph - N/A   Mostly Cloudy
7:53 AM 73.0 °F - 69.1 °F 87% 29.84 in 3.0 mi South 4.6 mph - N/A   Overcast
8:53 AM 75.9 °F - 70.0 °F 82% 29.85 in 5.0 mi South 6.9 mph - N/A   Haze
9:53 AM 78.1 °F - 70.0 °F 76% 29.86 in 5.0 mi South 11.5 mph - N/A   Haze
10:28 AM 78.8 °F - 69.8 °F 74% 29.86 in 6.0 mi South 12.7 mph - N/A   Haze
10:53 AM 79.0 °F - 70.0 °F 74% 29.85 in 6.0 mi South 18.4 mph - N/A   Haze
11:53 AM 79.0 °F - 70.0 °F 74% 29.84 in 6.0 mi South 13.8 mph 19.6 mph N/A   Haze
12:43 PM 80.6 °F 83.9 °F 69.8 °F 70% 29.82 in 6.0 mi South 10.4 mph 20.7 mph N/A   Haze
12:53 PM 80.1 °F 83.2 °F 70.0 °F 71% 29.81 in 7.0 mi South 10.4 mph 19.6 mph N/A   Overcast
1:53 PM 81.0 °F 84.4 °F 70.0 °F 69% 29.78 in 7.0 mi South 13.8 mph - N/A   Overcast
2:19 PM 82.4 °F 86.3 °F 69.8 °F 66% 29.77 in 7.0 mi South 13.8 mph 19.6 mph N/A   Overcast
2:34 PM 82.4 °F 86.3 °F 69.8 °F 66% 29.76 in 7.0 mi SSE 13.8 mph - N/A   Overcast
2:53 PM 82.9 °F 87.0 °F 70.0 °F 65% 29.75 in 7.0 mi SSE 17.3 mph - N/A   Overcast
3:38 PM 80.6 °F 84.6 °F 71.6 °F 74% 29.74 in 7.0 mi SSE 17.3 mph - N/A   Mostly Cloudy
3:53 PM 80.1 °F 83.8 °F 72.0 °F 76% 29.75 in 6.0 mi SSE 17.3 mph 24.2 mph N/A   Haze
4:34 PM 78.8 °F - 71.6 °F 78% 29.76 in 6.0 mi South 12.7 mph - N/A   Haze
4:53 PM 79.0 °F - 72.0 °F 79% 29.77 in 7.0 mi South 10.4 mph - N/A   Overcast
5:53 PM 79.0 °F - 72.0 °F 79% 29.80 in 8.0 mi SSE 5.8 mph - N/A   Overcast
6:53 PM 75.0 °F - 71.1 °F 87% 29.84 in 6.0 mi NE 8.1 mph - N/A   Overcast
7:07 PM 75.2 °F - 71.6 °F 89% 29.84 in 6.0 mi NE 8.1 mph - N/A   Haze
7:53 PM 75.9 °F - 71.1 °F 85% 29.86 in 6.0 mi NE 10.4 mph - N/A   Haze
8:01 PM 75.2 °F - 71.6 °F 89% 29.86 in 6.0 mi NE 8.1 mph - N/A   Haze
8:08 PM 75.2 °F - 71.6 °F 89% 29.86 in 6.0 mi NE 10.4 mph - N/A   Haze
8:53 PM 75.0 °F - 71.1 °F 87% 29.87 in 6.0 mi NNE 11.5 mph - N/A   Overcast
9:11 PM 73.4 °F - 69.8 °F 88% 29.87 in 5.0 mi NNE 10.4 mph - N/A   Overcast
9:53 PM 69.1 °F - 64.9 °F 87% 29.89 in 4.0 mi North 19.6 mph 26.5 mph N/A   Overcast
10:21 PM 64.4 °F - 62.6 °F 94% 29.89 in 4.0 mi North 21.9 mph 28.8 mph N/A   Overcast
10:53 PM 63.0 °F - 60.1 °F 90% 29.91 in 5.0 mi North 20.7 mph 27.6 mph 0.00 in Rain Light Rain
11:53 PM 61.0 °F - 57.9 °F 90% 29.92 in 6.0 mi North 16.1 mph - 0.00 in   Overcast